Weather History for Grafton, ND

Change the Weather History Date:

Sunday, February 17, 2013

  Actual Average Record
Temperature  
Mean Temperature 22 °F -  
Max Temperature 30 °F 23 °F 48 °F (1981)
Min Temperature 15 °F 4 °F -34 °F (1979)
Degree Days  
Heating Degree Days 42    
Moisture  
Dew Point 21 °F    
Average Humidity 94    
Maximum Humidity 100    
Minimum Humidity 86    
Precipitation  
Precipitation 0.00 in - - ()
Sea Level Pressure  
Sea Level Pressure 29.59 in    
Wind  
Wind Speed 19 mph (South)    
Max Wind Speed 31 mph    
Max Gust Speed 39 mph    
Visibility 6 miles    
Events Snow    
Averages and records for this station are not official NWS values.
T = Trace of Precipitation, MM = Missing Value Source: NWS Daily Summary

Daily Weather History Graph

Daily Weather History Graph

Search for Another Location

Airport:

Trip Planner

Search our weather history database for the weather conditions in past years. The results will help you decide how hot, cold, wet, or windy it might be!

Date:

Astronomy

Feb. 17, 2013 Rise Set
Actual Time 7:32 AM CST 5:54 PM CST
Civil Twilight 7:00 AM CST 6:27 PM CST
Nautical Twilight 6:24 AM CST 7:03 PM CST
Astronomical Twilight 5:48 AM CST 7:39 PM CST
Moon 10:48 AM CST (2/17) 1:28 AM CST (2/17)
Length of Visible Light 11h 26m
Length of Day
10h 22m
Waxing Crescent, 49% of the Moon is Illuminated
Feb 17
Waxing Crescent
Feb 17
First Quarter
Feb 25
Full
Mar 4
Last Quarter
Mar 11
New

Hourly Weather History & Observations

Time (CST) Temp. Windchill Dew Point Humidity Pressure Visibility Wind Dir Wind Speed Gust Speed Precip Events Conditions
12:15 AM 15.8 °F -1.1 °F 14.0 °F 93% 29.86 in 10.0 mi South 19.6 mph - N/A   Mostly Cloudy
12:35 AM 15.8 °F -1.1 °F 14.0 °F 93% 29.86 in 9.0 mi South 19.6 mph - N/A   Scattered Clouds
12:55 AM 15.8 °F -0.2 °F 14.0 °F 93% 29.85 in 10.0 mi South 17.3 mph 24.2 mph N/A   Overcast
1:15 AM 15.8 °F -0.2 °F 14.0 °F 93% 29.84 in 10.0 mi South 17.3 mph - N/A   Overcast
1:35 AM 15.8 °F -0.6 °F 14.0 °F 93% 29.84 in 10.0 mi South 18.4 mph - N/A   Overcast
1:55 AM 17.6 °F 2.2 °F 14.0 °F 86% 29.83 in 10.0 mi South 17.3 mph - N/A   Mostly Cloudy
2:15 AM 15.8 °F -0.2 °F 14.0 °F 93% 29.82 in 10.0 mi South 17.3 mph - N/A   Mostly Cloudy
2:35 AM 15.8 °F -1.1 °F 14.0 °F 93% 29.81 in 10.0 mi South 19.6 mph - N/A   Overcast
2:55 AM 15.8 °F -1.1 °F 14.0 °F 93% 29.80 in 10.0 mi South 19.6 mph - N/A   Overcast
3:15 AM 15.8 °F -1.9 °F 14.0 °F 93% 29.78 in 10.0 mi South 21.9 mph 26.5 mph N/A   Overcast
3:35 AM 15.8 °F -1.9 °F 14.0 °F 93% 29.76 in 10.0 mi South 21.9 mph 26.5 mph N/A   Overcast
3:55 AM 15.8 °F -1.9 °F 14.0 °F 93% 29.76 in 10.0 mi South 21.9 mph - N/A   Overcast
4:15 AM 15.8 °F -1.9 °F 14.0 °F 93% 29.75 in 9.0 mi South 21.9 mph 26.5 mph N/A   Overcast
4:35 AM 15.8 °F -1.1 °F 14.0 °F 93% 29.74 in 8.0 mi South 19.6 mph - N/A   Overcast
4:55 AM 15.8 °F -1.5 °F 14.0 °F 93% 29.74 in 7.0 mi South 20.7 mph 24.2 mph N/A   Overcast
5:15 AM 15.8 °F -1.9 °F 15.8 °F 100% 29.72 in 6.0 mi South 21.9 mph 26.5 mph N/A   Overcast
5:35 AM 15.8 °F -2.3 °F 15.8 °F 100% 29.71 in 5.0 mi South 23.0 mph - N/A   Overcast
5:55 AM 15.8 °F -1.9 °F 15.8 °F 100% 29.70 in 5.0 mi South 21.9 mph - N/A   Overcast
6:15 AM 17.6 °F 0.9 °F 15.8 °F 93% 29.69 in 6.0 mi South 20.7 mph 26.5 mph N/A   Overcast
6:35 AM 17.6 °F 0.9 °F 15.8 °F 93% 29.67 in 5.0 mi South 20.7 mph 27.6 mph N/A   Overcast
6:55 AM 17.6 °F -0.3 °F 15.8 °F 93% 29.66 in 6.0 mi South 24.2 mph 29.9 mph N/A   Overcast
7:15 AM 17.6 °F -0.6 °F 15.8 °F 93% 29.65 in 5.0 mi South 25.3 mph 31.1 mph N/A   Overcast
7:35 AM 17.6 °F 0.1 °F 17.6 °F 100% 29.63 in 4.0 mi South 23.0 mph 31.1 mph N/A   Overcast
7:55 AM 19.4 °F 1.8 °F 17.6 °F 93% 29.63 in 3.0 mi South 25.3 mph 32.2 mph N/A   Overcast
8:15 AM 19.4 °F 2.1 °F 17.6 °F 93% 29.62 in 3.0 mi South 24.2 mph 31.1 mph N/A   Overcast
8:35 AM 19.4 °F 2.1 °F 19.4 °F 100% 29.61 in 2.5 mi South 24.2 mph 33.4 mph N/A   Overcast
8:55 AM 21.2 °F 3.9 °F 19.4 °F 93% 29.59 in 1.5 mi South 26.5 mph 32.2 mph N/A   Overcast
9:15 AM 21.2 °F 3.9 °F 19.4 °F 93% 29.59 in 1.5 mi South 26.5 mph 35.7 mph N/A   Overcast
9:35 AM 23.0 °F 6.3 °F 19.4 °F 86% 29.58 in 2.0 mi South 26.5 mph 39.1 mph N/A   Overcast
9:55 AM 23.0 °F 6.9 °F 19.4 °F 86% 29.57 in 2.5 mi South 24.2 mph 34.5 mph N/A   Overcast
10:15 AM 23.0 °F 5.1 °F 19.4 °F 86% 29.56 in 3.0 mi South 31.1 mph 35.7 mph N/A   Overcast
10:35 AM 23.0 °F 6.0 °F 19.4 °F 86% 29.55 in 2.5 mi South 27.6 mph 36.8 mph N/A   Mostly Cloudy
11:15 AM 23.0 °F 7.6 °F 19.4 °F 86% 29.54 in 4.0 mi South 21.9 mph 31.1 mph N/A   Scattered Clouds
11:35 AM 23.0 °F 8.7 °F 19.4 °F 86% 29.54 in 5.0 mi South 18.4 mph 31.1 mph N/A   Partly Cloudy
11:55 AM 23.0 °F 7.6 °F 19.4 °F 86% 29.53 in 6.0 mi South 21.9 mph 26.5 mph N/A   Partly Cloudy
12:15 PM 23.0 °F 6.6 °F 21.2 °F 93% 29.51 in 7.0 mi South 25.3 mph 29.9 mph N/A   Clear
1:15 PM 24.8 °F 9.0 °F 23.0 °F 93% 29.47 in 8.0 mi South 25.3 mph 31.1 mph N/A   Partly Cloudy
1:35 PM 24.8 °F 10.0 °F 23.0 °F 93% 29.49 in 8.0 mi South 21.9 mph 28.8 mph N/A   Clear
1:55 PM 26.6 °F 12.7 °F 23.0 °F 86% 29.47 in 8.0 mi South 20.7 mph - N/A   Clear
2:15 PM 26.6 °F 12.4 °F 24.8 °F 93% 29.47 in 8.0 mi South 21.9 mph - N/A   Clear
2:35 PM 26.6 °F 12.7 °F 24.8 °F 93% 29.45 in 8.0 mi South 20.7 mph 25.3 mph N/A   Scattered Clouds
2:55 PM 26.6 °F 12.4 °F 24.8 °F 93% 29.45 in 7.0 mi South 21.9 mph 26.5 mph N/A   Mostly Cloudy
3:15 PM 28.4 °F 15.4 °F 24.8 °F 86% 29.44 in 7.0 mi South 19.6 mph - N/A   Scattered Clouds
3:35 PM 28.4 °F 15.4 °F 26.6 °F 93% 29.44 in 8.0 mi South 19.6 mph - N/A   Partly Cloudy
3:55 PM 28.4 °F 15.8 °F 26.6 °F 93% 29.44 in 7.0 mi South 18.4 mph - N/A   Clear
4:15 PM 28.4 °F 16.2 °F 26.6 °F 93% 29.44 in 7.0 mi South 17.3 mph 21.9 mph N/A   Clear
4:35 PM 28.4 °F 17.5 °F 26.6 °F 93% 29.45 in 8.0 mi South 13.8 mph - N/A   Partly Cloudy
4:55 PM 28.4 °F 17.5 °F 26.6 °F 93% 29.45 in 7.0 mi South 13.8 mph - N/A   Scattered Clouds
5:15 PM 28.4 °F 17.5 °F 26.6 °F 93% 29.46 in 6.0 mi South 13.8 mph - N/A   Partly Cloudy
5:35 PM 28.4 °F 17.0 °F 26.6 °F 93% 29.46 in 6.0 mi South 15.0 mph - N/A   Clear
5:55 PM 28.4 °F 17.0 °F 26.6 °F 93% 29.47 in 6.0 mi South 15.0 mph - N/A   Clear
6:15 PM 28.4 °F 17.5 °F 26.6 °F 93% 29.47 in 7.0 mi South 13.8 mph - N/A   Partly Cloudy
6:35 PM 28.4 °F 18.0 °F 26.6 °F 93% 29.48 in 8.0 mi South 12.7 mph - N/A   Partly Cloudy
6:55 PM 28.4 °F 20.4 °F 26.6 °F 93% 29.49 in 7.0 mi South 8.1 mph - N/A   Clear
7:15 PM 30.2 °F 21.3 °F 28.4 °F 93% 29.49 in 5.0 mi South 10.4 mph - N/A   Clear
7:35 PM 28.4 °F 18.5 °F 28.4 °F 100% 29.49 in 1.2 mi South 11.5 mph - N/A Snow Light Snow
7:55 PM 30.2 °F 19.3 °F 30.2 °F 100% 29.49 in 1.8 mi South 15.0 mph - N/A Snow Light Snow
8:15 PM 28.4 °F 18.5 °F 28.4 °F 100% 29.49 in 2.0 mi South 11.5 mph - N/A Snow Light Snow
8:35 PM 28.4 °F 19.7 °F 28.4 °F 100% 29.49 in 1.5 mi South 9.2 mph - N/A Snow Light Snow
8:55 PM 28.4 °F 20.4 °F 28.4 °F 100% 29.49 in 1.5 mi South 8.1 mph - N/A Snow Light Snow
9:15 PM 28.4 °F 21.2 °F 28.4 °F 100% 29.50 in 1.5 mi South 6.9 mph - N/A Snow Light Snow
9:35 PM 26.6 °F 17.5 °F 26.6 °F 100% 29.52 in 0.8 mi North 9.2 mph 19.6 mph N/A Snow Light Snow
9:55 PM 26.6 °F 15.2 °F 26.6 °F 100% 29.52 in 0.8 mi North 13.8 mph - N/A Snow Light Snow
10:15 PM 24.8 °F 12.9 °F 24.8 °F 100% 29.51 in 0.5 mi North 13.8 mph - N/A Snow Snow
10:35 PM 24.8 °F 12.4 °F 24.8 °F 100% 29.51 in 0.5 mi NNW 15.0 mph - N/A Snow Snow
10:55 PM 24.8 °F 11.9 °F 24.8 °F 100% 29.51 in 1.0 mi NNW 16.1 mph - N/A Snow Light Snow
11:15 PM 24.8 °F 11.9 °F 23.0 °F 93% 29.51 in 3.0 mi NNW 16.1 mph - N/A Snow Light Snow
11:35 PM 24.8 °F 11.9 °F 23.0 °F 93% 29.51 in 3.0 mi NNW 16.1 mph - N/A Snow Light Snow
11:55 PM 24.8 °F 11.5 °F 23.0 °F 93% 29.52 in 1.5 mi NNW 17.3 mph - N/A Snow Light Snow